Time,TemperatureF,DewpointF,PressureIn,WindDirection,WindDirectionDegrees,WindSpeedMPH,WindSpeedGustMPH,Humidity,HourlyPrecipIn,Conditions,Clouds,dailyrainin,SoftwareType,DateUTC
2014-01-12 00:12:00,26.6,24.0,29.76,West,279,4.0,-999.0,90,-99.99,,,0.00,weatherlink.com 1.10,2014-01-12 06:12:00,
2014-01-12 00:27:00,26.5,24.0,29.76,SW,234,5.0,-999.0,90,-99.99,,,0.00,weatherlink.com 1.10,2014-01-12 06:27:00,
2014-01-12 00:42:00,26.3,24.0,29.76,West,267,8.0,-999.0,90,-99.99,,,0.00,weatherlink.com 1.10,2014-01-12 06:42:00,
2014-01-12 00:57:00,26.3,24.0,29.76,WSW,244,4.0,-999.0,90,-99.99,,,0.00,weatherlink.com 1.10,2014-01-12 06:57:00,
2014-01-12 01:12:00,26.2,24.0,29.76,West,270,6.0,-999.0,91,-99.99,,,0.00,weatherlink.com 1.10,2014-01-12 07:12:00,
2014-01-12 01:27:00,26.1,24.0,29.77,WSW,256,6.0,-999.0,91,-99.99,,,0.00,weatherlink.com 1.10,2014-01-12 07:27:00,
2014-01-12 01:42:00,26.1,24.0,29.77,WSW,256,9.0,-999.0,91,-99.99,,,0.00,weatherlink.com 1.10,2014-01-12 07:42:00,
2014-01-12 01:57:00,25.8,24.0,29.77,WSW,257,7.0,-999.0,91,-99.99,,,0.00,weatherlink.com 1.10,2014-01-12 07:57:00,
2014-01-12 02:12:00,25.6,23.0,29.77,West,265,8.0,-999.0,91,-99.99,,,0.00,weatherlink.com 1.10,2014-01-12 08:12:00,
2014-01-12 02:27:00,25.5,23.0,29.77,WSW,252,2.0,-999.0,91,-99.99,,,0.00,weatherlink.com 1.10,2014-01-12 08:27:00,
2014-01-12 02:42:00,25.3,23.0,29.77,WSW,252,6.0,-999.0,92,-99.99,,,0.00,weatherlink.com 1.10,2014-01-12 08:42:00,
2014-01-12 02:57:00,25.0,23.0,29.77,SW,236,3.0,-999.0,92,-99.99,,,0.00,weatherlink.com 1.10,2014-01-12 08:57:00,
2014-01-12 03:12:00,25.0,23.0,29.77,WSW,238,4.0,-999.0,92,-99.99,,,0.00,weatherlink.com 1.10,2014-01-12 09:12:00,
2014-01-12 03:27:00,25.0,23.0,29.77,WSW,237,4.0,-999.0,92,-99.99,,,0.00,weatherlink.com 1.10,2014-01-12 09:27:00,
2014-01-12 03:42:00,24.9,23.0,29.76,WSW,240,4.0,-999.0,92,-99.99,,,0.00,weatherlink.com 1.10,2014-01-12 09:42:00,
2014-01-12 03:57:00,24.8,23.0,29.77,WSW,239,2.0,-999.0,92,-99.99,,,0.00,weatherlink.com 1.10,2014-01-12 09:57:00,
2014-01-12 04:12:00,24.6,23.0,29.77,SW,225,2.0,-999.0,92,-99.99,,,0.00,weatherlink.com 1.10,2014-01-12 10:12:00,
2014-01-12 04:27:00,24.5,23.0,29.76,SW,229,5.0,-999.0,92,-99.99,,,0.00,weatherlink.com 1.10,2014-01-12 10:27:00,
2014-01-12 04:42:00,24.3,22.0,29.75,SW,224,3.0,-999.0,92,-99.99,,,0.00,weatherlink.com 1.10,2014-01-12 10:42:00,
2014-01-12 04:57:00,24.1,22.0,29.75,SSW,201,4.0,-999.0,92,-99.99,,,0.00,weatherlink.com 1.10,2014-01-12 10:57:00,
2014-01-12 05:12:00,24.0,22.0,29.74,SSW,207,2.0,-999.0,92,-99.99,,,0.00,weatherlink.com 1.10,2014-01-12 11:12:00,
2014-01-12 05:27:00,23.9,22.0,29.74,SSW,198,2.0,-999.0,93,-99.99,,,0.00,weatherlink.com 1.10,2014-01-12 11:27:00,
2014-01-12 05:42:00,23.8,22.0,29.73,SW,219,5.0,-999.0,93,-99.99,,,0.00,weatherlink.com 1.10,2014-01-12 11:42:00,
2014-01-12 05:57:00,23.5,22.0,29.73,SSW,209,2.0,-999.0,93,-99.99,,,0.00,weatherlink.com 1.10,2014-01-12 11:57:00,
2014-01-12 06:14:00,23.1,21.0,29.73,SSW,208,1.0,-999.0,93,-99.99,,,0.00,weatherlink.com 1.10,2014-01-12 12:14:00,
2014-01-12 06:28:00,22.9,21.0,29.72,SSW,195,0.0,-999.0,93,-99.99,,,0.00,weatherlink.com 1.10,2014-01-12 12:28:00,
2014-01-12 06:43:00,23.0,21.0,29.72,South,190,2.0,-999.0,93,-99.99,,,0.00,weatherlink.com 1.10,2014-01-12 12:43:00,
2014-01-12 06:58:00,23.4,22.0,29.72,SSW,211,1.0,-999.0,94,-99.99,,,0.00,weatherlink.com 1.10,2014-01-12 12:58:00,
2014-01-12 07:13:00,23.7,22.0,29.73,SSW,202,3.0,-999.0,94,-99.99,,,0.00,weatherlink.com 1.10,2014-01-12 13:13:00,
2014-01-12 07:28:00,24.0,23.0,29.72,SSW,200,5.0,-999.0,94,-99.99,,,0.00,weatherlink.com 1.10,2014-01-12 13:28:00,
2014-01-12 07:43:00,24.6,23.0,29.72,SSW,192,5.0,-999.0,94,-99.99,,,0.00,weatherlink.com 1.10,2014-01-12 13:43:00,
2014-01-12 07:58:00,25.1,24.0,29.72,SW,226,5.0,-999.0,94,-99.99,,,0.00,weatherlink.com 1.10,2014-01-12 13:58:00,
2014-01-12 08:13:00,25.3,24.0,29.71,SW,236,5.0,-999.0,94,-99.99,,,0.00,weatherlink.com 1.10,2014-01-12 14:13:00,
2014-01-12 08:28:00,25.8,24.0,29.71,SW,214,5.0,-999.0,93,-99.99,,,0.00,weatherlink.com 1.10,2014-01-12 14:28:00,
2014-01-12 08:43:00,26.4,25.0,29.68,SSW,203,5.0,-999.0,93,-99.99,,,0.00,weatherlink.com 1.10,2014-01-12 14:43:00,
2014-01-12 08:58:00,26.9,25.0,29.67,South,189,7.0,-999.0,92,-99.99,,,0.00,weatherlink.com 1.10,2014-01-12 14:58:00,
2014-01-12 09:13:00,27.5,25.0,29.67,South,176,5.0,-999.0,91,-99.99,,,0.00,weatherlink.com 1.10,2014-01-12 15:13:00,
2014-01-12 09:28:00,28.2,26.0,29.67,SSW,197,12.0,-999.0,91,-99.99,,,0.00,weatherlink.com 1.10,2014-01-12 15:28:00,
2014-01-12 09:43:00,28.9,26.0,29.68,SW,218,6.0,-999.0,90,-99.99,,,0.00,weatherlink.com 1.10,2014-01-12 15:43:00,
2014-01-12 09:58:00,29.4,27.0,29.67,SSE,165,6.0,-999.0,89,-99.99,,,0.00,weatherlink.com 1.10,2014-01-12 15:58:00,
2014-01-12 10:13:00,29.9,27.0,29.65,SSW,201,4.0,-999.0,89,-99.99,,,0.00,weatherlink.com 1.10,2014-01-12 16:13:00,
2014-01-12 10:28:00,31.7,28.0,29.64,SW,221,8.0,-999.0,87,-99.99,,,0.00,weatherlink.com 1.10,2014-01-12 16:28:00,
2014-01-12 10:43:00,33.1,29.0,29.63,SW,214,6.0,-999.0,84,-99.99,,,0.00,weatherlink.com 1.10,2014-01-12 16:43:00,
2014-01-12 10:58:00,34.1,29.0,29.62,SSW,204,10.0,-999.0,82,-99.99,,,0.00,weatherlink.com 1.10,2014-01-12 16:58:00,
2014-01-12 11:13:00,34.7,29.0,29.61,SW,215,12.0,-999.0,80,-99.99,,,0.00,weatherlink.com 1.10,2014-01-12 17:13:00,
2014-01-12 11:28:00,35.2,29.0,29.59,SW,222,13.0,-999.0,78,-99.99,,,0.00,weatherlink.com 1.10,2014-01-12 17:28:00,
2014-01-12 11:43:00,36.3,29.0,29.58,SSW,204,8.0,-999.0,76,-99.99,,,0.00,weatherlink.com 1.10,2014-01-12 17:43:00,
2014-01-12 11:58:00,36.5,29.0,29.58,SW,219,2.0,-999.0,74,-99.99,,,0.00,weatherlink.com 1.10,2014-01-12 17:58:00,
2014-01-12 12:13:00,37.6,29.0,29.57,SW,219,6.0,-999.0,72,-99.99,,,0.00,weatherlink.com 1.10,2014-01-12 18:13:00,
2014-01-12 12:29:00,38.2,30.0,29.56,SW,222,6.0,-999.0,71,-99.99,,,0.01,weatherlink.com 1.10,2014-01-12 18:29:00,
2014-01-12 12:44:00,39.1,30.0,29.56,SW,222,10.0,-999.0,69,-99.99,,,0.01,weatherlink.com 1.10,2014-01-12 18:44:00,
2014-01-12 12:59:00,39.8,30.0,29.55,SW,225,7.0,-999.0,67,-99.99,,,0.02,weatherlink.com 1.10,2014-01-12 18:59:00,
2014-01-12 13:14:00,40.0,30.0,29.54,SSW,209,7.0,-999.0,67,-99.99,,,0.02,weatherlink.com 1.10,2014-01-12 19:14:00,
2014-01-12 13:29:00,40.1,29.0,29.53,SSW,192,10.0,-999.0,66,-99.99,,,0.02,weatherlink.com 1.10,2014-01-12 19:29:00,
2014-01-12 13:44:00,40.3,30.0,29.53,SW,228,5.0,-999.0,66,-99.99,,,0.02,weatherlink.com 1.10,2014-01-12 19:44:00,
2014-01-12 13:59:00,40.4,30.0,29.53,WSW,244,8.0,-999.0,66,-99.99,,,0.02,weatherlink.com 1.10,2014-01-12 19:59:00,
2014-01-12 14:14:00,40.2,30.0,29.53,WSW,241,7.0,-999.0,66,-99.99,,,0.02,weatherlink.com 1.10,2014-01-12 20:14:00,
2014-01-12 14:29:00,40.3,30.0,29.52,WSW,238,4.0,-999.0,66,-99.99,,,0.02,weatherlink.com 1.10,2014-01-12 20:29:00,
2014-01-12 14:44:00,40.2,30.0,29.52,SSW,211,6.0,-999.0,66,-99.99,,,0.02,weatherlink.com 1.10,2014-01-12 20:44:00,
2014-01-12 14:59:00,40.0,30.0,29.52,SSW,200,3.0,-999.0,67,-99.99,,,0.02,weatherlink.com 1.10,2014-01-12 20:59:00,
2014-01-12 15:14:00,39.8,30.0,29.53,SW,219,6.0,-999.0,68,-99.99,,,0.02,weatherlink.com 1.10,2014-01-12 21:14:00,
2014-01-12 15:29:00,39.6,30.0,29.54,WSW,238,1.0,-999.0,69,-99.99,,,0.02,weatherlink.com 1.10,2014-01-12 21:29:00,
2014-01-12 15:44:00,39.6,30.0,29.54,SW,235,5.0,-999.0,69,-99.99,,,0.02,weatherlink.com 1.10,2014-01-12 21:44:00,
2014-01-12 15:59:00,39.3,30.0,29.54,SSW,204,3.0,-999.0,70,-99.99,,,0.02,weatherlink.com 1.10,2014-01-12 21:59:00,
2014-01-12 16:14:00,39.1,30.0,29.54,SW,231,2.0,-999.0,71,-99.99,,,0.02,weatherlink.com 1.10,2014-01-12 22:14:00,
2014-01-12 16:29:00,38.9,30.0,29.54,SW,222,4.0,-999.0,71,-99.99,,,0.02,weatherlink.com 1.10,2014-01-12 22:29:00,
2014-01-12 16:44:00,38.8,30.0,29.55,SW,218,2.0,-999.0,72,-99.99,,,0.02,weatherlink.com 1.10,2014-01-12 22:44:00,
2014-01-12 16:59:00,38.7,30.0,29.55,SW,231,3.0,-999.0,72,-99.99,,,0.02,weatherlink.com 1.10,2014-01-12 22:59:00,
2014-01-12 17:14:00,38.7,30.0,29.55,SW,225,3.0,-999.0,72,-99.99,,,0.02,weatherlink.com 1.10,2014-01-12 23:14:00,
2014-01-12 17:29:00,38.6,30.0,29.55,SW,231,5.0,-999.0,72,-99.99,,,0.02,weatherlink.com 1.10,2014-01-12 23:29:00,
2014-01-12 17:44:00,38.6,30.0,29.56,SW,233,2.0,-999.0,72,-99.99,,,0.02,weatherlink.com 1.10,2014-01-12 23:44:00,
2014-01-12 17:59:00,38.7,31.0,29.57,SW,233,4.0,-999.0,73,-99.99,,,0.02,weatherlink.com 1.10,2014-01-12 23:59:00,
2014-01-12 18:14:00,38.6,31.0,29.57,SW,218,3.0,-999.0,73,-99.99,,,0.02,weatherlink.com 1.10,2014-01-13 00:14:00,
2014-01-12 18:29:00,38.5,31.0,29.57,SW,223,1.0,-999.0,73,-99.99,,,0.02,weatherlink.com 1.10,2014-01-13 00:29:00,
2014-01-12 18:44:00,38.3,31.0,29.57,SW,234,4.0,-999.0,74,-99.99,,,0.02,weatherlink.com 1.10,2014-01-13 00:44:00,
2014-01-12 18:59:00,38.0,31.0,29.56,SW,232,3.0,-999.0,75,-99.99,,,0.02,weatherlink.com 1.10,2014-01-13 00:59:00,
2014-01-12 19:14:00,37.7,31.0,29.56,SW,222,1.0,-999.0,76,-99.99,,,0.02,weatherlink.com 1.10,2014-01-13 01:14:00,
2014-01-12 19:29:00,37.5,31.0,29.56,SW,222,2.0,-999.0,76,-99.99,,,0.02,weatherlink.com 1.10,2014-01-13 01:29:00,
2014-01-12 19:44:00,37.2,31.0,29.56,SW,215,2.0,-999.0,77,-99.99,,,0.02,weatherlink.com 1.10,2014-01-13 01:44:00,
2014-01-12 19:59:00,36.9,31.0,29.55,SW,215,2.0,-999.0,78,-99.99,,,0.02,weatherlink.com 1.10,2014-01-13 01:59:00,
2014-01-12 20:14:00,36.8,31.0,29.55,SSW,210,1.0,-999.0,78,-99.99,,,0.02,weatherlink.com 1.10,2014-01-13 02:14:00,
2014-01-12 20:29:00,37.1,31.0,29.55,WSW,242,5.0,-999.0,78,-99.99,,,0.02,weatherlink.com 1.10,2014-01-13 02:29:00,
2014-01-12 20:44:00,37.2,31.0,29.55,SW,228,4.0,-999.0,79,-99.99,,,0.02,weatherlink.com 1.10,2014-01-13 02:44:00,
2014-01-12 20:59:00,37.3,31.0,29.56,SSW,209,4.0,-999.0,79,-99.99,,,0.02,weatherlink.com 1.10,2014-01-13 02:59:00,
2014-01-12 21:14:00,37.1,31.0,29.56,WSW,252,4.0,-999.0,79,-99.99,,,0.02,weatherlink.com 1.10,2014-01-13 03:14:00,
2014-01-12 21:29:00,36.6,31.0,29.56,SSW,210,2.0,-999.0,80,-99.99,,,0.02,weatherlink.com 1.10,2014-01-13 03:29:00,
2014-01-12 21:44:00,36.8,32.0,29.56,SW,232,4.0,-999.0,81,-99.99,,,0.02,weatherlink.com 1.10,2014-01-13 03:44:00,
2014-01-12 21:59:00,36.9,31.0,29.55,SW,226,2.0,-999.0,80,-99.99,,,0.02,weatherlink.com 1.10,2014-01-13 03:59:00,
2014-01-12 22:14:00,36.8,32.0,29.55,SW,230,3.0,-999.0,81,-99.99,,,0.02,weatherlink.com 1.10,2014-01-13 04:14:00,
2014-01-12 22:29:00,36.8,32.0,29.56,SW,233,2.0,-999.0,81,-99.99,,,0.02,weatherlink.com 1.10,2014-01-13 04:29:00,
2014-01-12 22:44:00,36.6,32.0,29.56,WSW,251,2.0,-999.0,82,-99.99,,,0.02,weatherlink.com 1.10,2014-01-13 04:44:00,
2014-01-12 22:59:00,36.5,32.0,29.56,SW,225,4.0,-999.0,82,-99.99,,,0.02,weatherlink.com 1.10,2014-01-13 04:59:00,
2014-01-12 23:14:00,36.5,32.0,29.54,WSW,246,2.0,-999.0,82,-99.99,,,0.02,weatherlink.com 1.10,2014-01-13 05:14:00,
2014-01-12 23:29:00,36.5,32.0,29.54,WSW,245,0.0,-999.0,82,-99.99,,,0.02,weatherlink.com 1.10,2014-01-13 05:29:00,
2014-01-12 23:44:00,36.2,32.0,29.54,WSW,245,3.0,-999.0,83,-99.99,,,0.02,weatherlink.com 1.10,2014-01-13 05:44:00,
2014-01-12 23:59:00,36.5,32.0,29.54,WSW,251,0.0,-999.0,82,-99.99,,,0.02,weatherlink.com 1.10,2014-01-13 05:59:00,